Latest Coastal Weather Observations for Spring Bay

IDT60701

Issued at 10:32 am EST Friday 22 September 2017 (issued every 10 minutes, with the page automatically refreshed every 10 minutes)

About coastal observations | Map of coastal stations | Coastal observations for TAS | Marine services | Other Formats
Station Details ID: 092133 Name: SPRING BAY NTC AWS Lat: -42.55 Lon: 147.93 Height: 0.0 m
Data from the previous 72 hours. | See also: Recent months for locations in Tasmania
Date/Time
EST
Temp
°C
Wind Pressure Rain since
9am
mm
Weather Cloud Vis
km
Sea
Height
m
Swell
Dir  Spd
kts
Gust
kts
hPa Trend Height
m
Period
s
Dir
22/10:30am 13.8 - - - 1008.0 - - - - - - - - -
22/10:00am 14.6 - - - 1008.3 - - - - - - - - -
22/09:30am 13.1 - - - 1008.5 - - - - - - - - -
22/09:00am 12.6 - - - 1008.6 - - - - - - - - -
22/08:30am 10.9 - - - 1008.4 - - - - - - - - -
22/08:00am 10.3 - - - 1008.1 - - - - - - - - -
22/07:30am 9.5 - - - 1007.9 - - - - - - - - -
22/07:00am 8.9 - - - 1007.8 - - - - - - - - -
22/06:30am 7.7 - - - 1007.6 - - - - - - - - -
22/06:00am 7.5 - - - 1007.2 - - - - - - - - -
22/05:30am 7.4 - - - 1006.7 - - - - - - - - -
22/05:00am 8.4 - - - 1006.5 - - - - - - - - -
22/04:30am 9.0 - - - 1006.5 - - - - - - - - -
22/04:00am 8.2 - - - 1006.1 - - - - - - - - -
22/03:30am 9.3 - - - 1006.0 - - - - - - - - -
22/03:00am 10.9 - - - 1006.1 - - - - - - - - -
22/02:30am 11.7 - - - 1005.9 - - - - - - - - -
22/02:00am 11.7 - - - 1006.1 - - - - - - - - -
22/01:30am 12.1 - - - 1006.5 - - - - - - - - -
22/01:00am 12.2 - - - 1006.5 - - - - - - - - -
22/12:30am 12.0 - - - 1006.5 - - - - - - - - -
22/12:00am 12.4 - - - 1006.3 - - - - - - - - -
 
Date/Time
EST
Temp
°C
Wind Pressure Rain since
9am
mm
Weather Cloud Vis
km
Sea
Height
m
Swell
Dir  Spd
kts
Gust
kts
hPa Trend Height
m
Period
s
Dir
21/11:30pm 12.1 - - - 1006.4 - - - - - - - - -
21/11:00pm 11.3 - - - 1006.4 - - - - - - - - -
21/10:30pm 12.2 - - - 1006.0 - - - - - - - - -
21/10:00pm 12.5 - - - 1005.7 - - - - - - - - -
21/09:30pm 12.8 - - - 1005.3 - - - - - - - - -
21/09:00pm 13.4 - - - 1004.8 - - - - - - - - -
21/08:30pm 13.6 - - - 1004.4 - - - - - - - - -
21/08:00pm 13.9 - - - 1004.0 - - - - - - - - -
21/07:30pm 14.2 - - - 1003.4 - - - - - - - - -
21/07:00pm 14.9 - - - 1002.7 - - - - - - - - -
21/06:30pm 15.4 - - - 1002.0 - - - - - - - - -
21/06:00pm 15.8 - - - 1001.6 - - - - - - - - -
21/05:30pm 16.1 - - - 1001.4 - - - - - - - - -
21/05:00pm 16.3 - - - 1001.4 - - - - - - - - -
21/04:30pm 16.7 - - - 1001.2 - - - - - - - - -
21/04:00pm 17.4 - - - 1001.1 - - - - - - - - -
21/03:30pm 16.5 - - - 1001.1 - - - - - - - - -
21/03:00pm 17.5 - - - 1001.1 - - - - - - - - -
21/02:30pm 17.6 - - - 1001.5 - - - - - - - - -
21/02:00pm 17.7 - - - 1001.8 - - - - - - - - -
21/01:30pm 16.5 - - - 1002.1 - - - - - - - - -
21/01:00pm 16.4 - - - 1002.7 - - - - - - - - -
21/12:30pm 16.4 - - - 1003.5 - - - - - - - - -
21/12:00pm 15.3 - - - 1005.0 - - - - - - - - -
21/11:30am 14.7 - - - 1006.1 - - - - - - - - -
21/11:00am 13.9 - - - 1007.1 - - - - - - - - -
21/10:30am 13.4 - - - 1007.3 - - - - - - - - -
21/10:00am 13.2 - - - 1007.5 - - - - - - - - -
21/09:30am 12.9 - - - 1007.8 - - - - - - - - -
21/09:00am 12.8 - - - 1008.3 - - - - - - - - -
21/08:30am 12.8 - - - 1008.3 - - - - - - - - -
21/08:00am 12.8 - - - 1008.5 - - - - - - - - -
21/07:30am 13.0 - - - 1008.6 - - - - - - - - -
21/07:00am 13.3 - - - 1008.9 - - - - - - - - -
21/06:30am 12.9 - - - 1008.5 - - - - - - - - -
21/06:00am 12.6 - - - 1008.5 - - - - - - - - -
21/05:30am 11.9 - - - 1009.3 - - - - - - - - -
21/05:00am 11.8 - - - 1009.6 - - - - - - - - -
21/04:30am 11.7 - - - 1009.2 - - - - - - - - -
21/04:00am 11.6 - - - 1009.5 - - - - - - - - -
21/03:30am 11.8 - - - 1009.9 - - - - - - - - -
21/03:00am 11.6 - - - 1010.0 - - - - - - - - -
21/02:30am 11.7 - - - 1009.8 - - - - - - - - -
21/02:00am 12.0 - - - 1010.2 - - - - - - - - -
21/01:30am 11.9 - - - 1010.7 - - - - - - - - -
21/01:00am 11.1 - - - 1011.9 - - - - - - - - -
21/12:30am 10.4 - - - 1012.3 - - - - - - - - -
21/12:00am 11.4 - - - 1012.0 - - - - - - - - -
 
Date/Time
EST
Temp
°C
Wind Pressure Rain since
9am
mm
Weather Cloud Vis
km
Sea
Height
m
Swell
Dir  Spd
kts
Gust
kts
hPa Trend Height
m
Period
s
Dir
20/11:30pm 10.3 - - - 1012.0 - - - - - - - - -
20/11:00pm 10.9 - - - 1012.2 - - - - - - - - -
20/10:30pm 11.8 - - - 1012.2 - - - - - - - - -
20/10:00pm 11.7 - - - 1012.1 - - - - - - - - -
20/09:30pm 10.9 - - - 1013.0 - - - - - - - - -
20/09:00pm 11.5 - - - 1012.2 - - - - - - - - -
20/08:30pm 11.3 - - - 1012.4 - - - - - - - - -
20/08:00pm 11.0 - - - 1012.8 - - - - - - - - -
20/07:30pm 11.5 - - - 1013.0 - - - - - - - - -
20/07:00pm 11.3 - - - 1013.1 - - - - - - - - -
20/06:30pm 11.0 - - - 1012.3 - - - - - - - - -
20/06:00pm 11.3 - - - 1011.8 - - - - - - - - -
20/05:30pm 11.9 - - - 1012.1 - - - - - - - - -
20/05:00pm 12.1 - - - 1012.2 - - - - - - - - -
20/04:30pm 12.8 - - - 1011.9 - - - - - - - - -
20/04:00pm 12.9 - - - 1011.8 - - - - - - - - -
20/03:30pm 12.8 - - - 1012.0 - - - - - - - - -
20/03:00pm 12.0 - - - 1012.4 - - - - - - - - -
20/02:30pm 12.2 - - - 1012.7 - - - - - - - - -
20/02:00pm 11.9 - - - 1013.1 - - - - - - - - -
20/01:30pm 12.6 - - - 1013.4 - - - - - - - - -
20/01:00pm 12.3 - - - 1013.9 - - - - - - - - -
20/12:30pm 11.5 - - - 1014.6 - - - - - - - - -
20/12:00pm 11.9 - - - 1014.9 - - - - - - - - -
20/11:30am 11.9 - - - 1015.3 - - - - - - - - -
20/11:00am 11.1 - - - 1015.7 - - - - - - - - -
20/10:30am 10.2 - - - 1016.3 - - - - - - - - -
20/10:00am 10.3 - - - 1016.9 - - - - - - - - -
20/09:30am 8.7 - - - 1017.3 - - - - - - - - -
20/09:00am 8.7 - - - 1017.6 - - - - - - - - -
20/08:30am 8.0 - - - 1017.7 - - - - - - - - -
20/08:00am 7.1 - - - 1017.8 - - - - - - - - -
20/07:30am 5.5 - - - 1017.9 - - - - - - - - -
20/07:00am 4.7 - - - 1017.9 - - - - - - - - -
20/06:30am 4.0 - - - 1017.7 - - - - - - - - -
20/06:00am 3.6 - - - 1017.5 - - - - - - - - -
20/05:30am 4.3 - - - 1017.1 - - - - - - - - -
20/05:00am 4.0 - - - 1016.9 - - - - - - - - -
20/04:30am 4.9 - - - 1016.8 - - - - - - - - -
20/04:00am 5.1 - - - 1016.7 - - - - - - - - -
20/03:30am 5.2 - - - 1016.7 - - - - - - - - -
20/03:00am 5.2 - - - 1016.9 - - - - - - - - -
20/02:30am 6.4 - - - 1017.1 - - - - - - - - -
20/02:00am 5.9 - - - 1017.0 - - - - - - - - -
20/01:30am 6.7 - - - 1017.0 - - - - - - - - -
20/01:00am 7.2 - - - 1017.3 - - - - - - - - -
20/12:30am 7.8 - - - 1017.4 - - - - - - - - -
20/12:00am 8.0 - - - 1017.2 - - - - - - - - -
 
Date/Time
EST
Temp
°C
Wind Pressure Rain since
9am
mm
Weather Cloud Vis
km
Sea
Height
m
Swell
Dir  Spd
kts
Gust
kts
hPa Trend Height
m
Period
s
Dir
19/11:30pm 8.1 - - - 1017.3 - - - - - - - - -
19/11:00pm 8.2 - - - 1017.3 - - - - - - - - -
19/10:30pm 8.3 - - - 1017.0 - - - - - - - - -
19/10:00pm 8.5 - - - 1016.9 - - - - - - - - -
19/09:30pm 8.9 - - - 1016.8 - - - - - - - - -
19/09:00pm 9.1 - - - 1016.5 - - - - - - - - -

Other Formats:

Comma delimited format used in spreadsheet applications
http://www.bom.gov.au/fwo/IDT60701/IDT60701.95987.axf

JavaScript Object Notation format (JSON) in row-major order
http://www.bom.gov.au/fwo/IDT60701/IDT60701.95987.json